Time,TemperatureF,DewpointF,PressureIn,WindDirection,WindDirectionDegrees,WindSpeedMPH,WindSpeedGustMPH,Humidity,HourlyPrecipIn,Conditions,Clouds,dailyrainin,SoftwareType,DateUTC
2013-02-18 00:00:00,24.6,10.8,24.28,SSE,158,3.0,5.0,55,0.00,,SKC,0.00,VWS V14.01,2013-02-18 05:00:00,
2013-02-18 00:05:00,24.6,11.2,24.30,SSE,159,2.0,4.0,56,0.00,,SKC,0.00,VWS V14.01,2013-02-18 05:05:00,
2013-02-18 00:10:00,24.7,10.9,24.30,SSE,161,2.0,3.0,55,0.00,,SKC,0.00,VWS V14.01,2013-02-18 05:10:00,
2013-02-18 00:15:00,24.7,11.2,24.29,SSE,152,4.0,4.0,56,0.00,,SKC,0.00,VWS V14.01,2013-02-18 05:15:00,
2013-02-18 00:20:00,24.7,11.2,24.27,SSW,199,5.0,6.0,56,0.00,,SKC,0.00,VWS V14.01,2013-02-18 05:20:00,
2013-02-18 00:25:00,24.7,11.2,24.27,SSE,155,2.0,5.0,56,0.00,,SKC,0.00,VWS V14.01,2013-02-18 05:25:00,
2013-02-18 00:30:00,24.8,11.3,24.24,SSE,157,2.0,3.0,56,0.00,,SKC,0.00,VWS V14.01,2013-02-18 05:30:00,
2013-02-18 00:35:00,24.9,11.0,24.25,SSE,164,3.0,5.0,55,0.00,,SKC,0.00,VWS V14.01,2013-02-18 05:35:00,
2013-02-18 00:40:00,24.9,11.0,24.21,South,180,2.0,6.0,55,0.00,,SKC,0.00,VWS V14.01,2013-02-18 05:40:00,
2013-02-18 00:45:00,25.0,11.5,24.36,SSE,167,4.0,5.0,56,0.00,,SKC,0.00,VWS V14.01,2013-02-18 05:45:00,
2013-02-18 00:50:00,25.0,11.5,24.21,SSE,161,2.0,9.0,56,0.00,,SKC,0.00,VWS V14.01,2013-02-18 05:50:00,
2013-02-18 00:55:00,25.1,11.2,24.30,SSE,159,4.0,6.0,55,0.00,,SKC,0.00,VWS V14.01,2013-02-18 05:55:00,
2013-02-18 01:00:00,25.2,11.3,24.35,South,174,4.0,7.0,55,0.00,,SKC,0.00,VWS V14.01,2013-02-18 06:00:00,
2013-02-18 01:05:00,25.2,11.3,24.35,South,170,3.0,5.0,55,0.00,,SKC,0.00,VWS V14.01,2013-02-18 06:05:00,
2013-02-18 01:10:00,25.3,11.4,24.41,South,169,3.0,7.0,55,0.00,,SKC,0.00,VWS V14.01,2013-02-18 06:10:00,
2013-02-18 01:15:00,25.3,11.0,24.58,SSE,157,5.0,6.0,54,0.00,,SKC,0.00,VWS V14.01,2013-02-18 06:15:00,
2013-02-18 01:20:00,25.3,11.0,24.58,SE,130,3.0,5.0,54,0.00,,SKC,0.00,VWS V14.01,2013-02-18 06:20:00,
2013-02-18 01:25:00,25.3,11.0,24.53,SSE,163,2.0,4.0,54,0.00,,SKC,0.00,VWS V14.01,2013-02-18 06:25:00,
2013-02-18 01:30:00,25.3,11.0,24.49,SSE,163,3.0,8.0,54,0.00,,SKC,0.00,VWS V14.01,2013-02-18 06:30:00,
2013-02-18 01:35:00,25.3,11.0,24.49,South,173,3.0,6.0,54,0.00,,SKC,0.00,VWS V14.01,2013-02-18 06:35:00,
2013-02-18 01:40:00,25.3,11.0,24.49,South,171,1.0,3.0,54,0.00,,SKC,0.00,VWS V14.01,2013-02-18 06:40:00,
2013-02-18 01:45:00,25.3,11.4,24.49,South,169,3.0,6.0,55,0.00,,SKC,0.00,VWS V14.01,2013-02-18 06:45:00,
2013-02-18 01:50:00,25.5,11.2,24.41,SSE,165,2.0,7.0,54,0.00,,SKC,0.00,VWS V14.01,2013-02-18 06:50:00,
2013-02-18 01:55:00,25.6,11.3,24.41,SSE,160,0.0,6.0,54,0.00,,SKC,0.00,VWS V14.01,2013-02-18 06:55:00,
2013-02-18 02:00:00,25.9,10.7,24.41,South,190,4.0,13.0,52,0.00,,SKC,0.00,VWS V14.01,2013-02-18 07:00:00,
2013-02-18 02:05:00,26.1,10.9,24.16,SSE,157,3.0,9.0,52,0.00,,SKC,0.00,VWS V14.01,2013-02-18 07:05:00,
2013-02-18 02:10:00,26.3,11.1,24.16,SE,140,3.0,11.0,52,0.00,,SKC,0.00,VWS V14.01,2013-02-18 07:10:00,
2013-02-18 02:15:00,26.3,10.6,24.16,SE,139,6.0,11.0,51,0.00,,SKC,0.00,VWS V14.01,2013-02-18 07:15:00,
2013-02-18 02:20:00,26.5,10.8,24.61,SSE,167,2.0,6.0,51,0.00,,SKC,0.00,VWS V14.01,2013-02-18 07:20:00,
2013-02-18 02:25:00,26.5,10.8,24.61,SSE,155,5.0,9.0,51,0.00,,SKC,0.00,VWS V14.01,2013-02-18 07:25:00,
2013-02-18 02:30:00,26.7,10.6,24.42,South,182,4.0,7.0,50,0.00,,SKC,0.00,VWS V14.01,2013-02-18 07:30:00,
2013-02-18 02:35:00,26.8,10.7,24.57,South,170,3.0,13.0,50,0.00,,SKC,0.00,VWS V14.01,2013-02-18 07:35:00,
2013-02-18 02:40:00,26.8,10.7,24.57,SSE,157,3.0,7.0,50,0.00,,SKC,0.00,VWS V14.01,2013-02-18 07:40:00,
2013-02-18 02:45:00,26.9,10.8,24.51,South,172,5.0,9.0,50,0.00,,SKC,0.00,VWS V14.01,2013-02-18 07:45:00,
2013-02-18 02:50:00,26.9,11.2,24.51,SSE,153,4.0,8.0,51,0.00,,SKC,0.00,VWS V14.01,2013-02-18 07:50:00,
2013-02-18 02:55:00,26.9,11.2,24.50,SSE,156,12.0,12.0,51,0.00,,SKC,0.00,VWS V14.01,2013-02-18 07:55:00,
2013-02-18 03:00:00,26.9,11.2,24.50,SSE,150,2.0,12.0,51,0.00,,SKC,0.00,VWS V14.01,2013-02-18 08:00:00,
2013-02-18 03:05:00,26.9,11.6,24.50,SSE,152,5.0,8.0,52,0.00,,SKC,0.00,VWS V14.01,2013-02-18 08:05:00,
2013-02-18 03:10:00,26.9,11.6,24.50,SSE,148,5.0,14.0,52,0.00,,SKC,0.00,VWS V14.01,2013-02-18 08:10:00,
2013-02-18 03:15:00,26.9,11.6,24.50,South,173,3.0,10.0,52,0.00,,SKC,0.00,VWS V14.01,2013-02-18 08:15:00,
2013-02-18 03:20:00,27.0,12.2,24.50,South,172,6.0,9.0,53,0.00,,SKC,0.00,VWS V14.01,2013-02-18 08:20:00,
2013-02-18 03:25:00,26.9,12.1,24.28,SSE,160,3.0,10.0,53,0.00,,SKC,0.00,VWS V14.01,2013-02-18 08:25:00,
2013-02-18 03:30:00,27.0,12.2,24.28,SSE,163,2.0,9.0,53,0.00,,SKC,0.00,VWS V14.01,2013-02-18 08:30:00,
2013-02-18 03:35:00,27.2,12.4,24.28,South,182,9.0,14.0,53,0.00,,SKC,0.00,VWS V14.01,2013-02-18 08:35:00,
2013-02-18 03:40:00,27.2,12.4,24.28,SSW,203,5.0,14.0,53,0.00,,SKC,0.00,VWS V14.01,2013-02-18 08:40:00,
2013-02-18 03:45:00,27.2,12.8,24.28,South,179,5.0,10.0,54,0.00,,SKC,0.00,VWS V14.01,2013-02-18 08:45:00,
2013-02-18 03:50:00,27.2,12.8,24.28,South,173,0.0,7.0,54,0.00,,SKC,0.00,VWS V14.01,2013-02-18 08:50:00,
2013-02-18 03:55:00,27.1,13.1,24.34,SSE,163,5.0,9.0,55,0.00,,SKC,0.00,VWS V14.01,2013-02-18 08:55:00,
2013-02-18 04:00:00,27.2,13.2,24.34,South,171,7.0,15.0,55,0.00,,SKC,0.00,VWS V14.01,2013-02-18 09:00:00,
2013-02-18 04:05:00,27.2,13.2,24.15,South,170,1.0,14.0,55,0.00,,SKC,0.00,VWS V14.01,2013-02-18 09:05:00,
2013-02-18 04:10:00,27.3,13.3,24.15,SSE,154,5.0,10.0,55,0.00,,SKC,0.00,VWS V14.01,2013-02-18 09:10:00,
2013-02-18 04:15:00,27.3,13.3,24.43,SE,142,3.0,8.0,55,0.00,,SKC,0.00,VWS V14.01,2013-02-18 09:15:00,
2013-02-18 04:20:00,27.2,13.2,24.43,South,173,5.0,9.0,55,0.00,,SKC,0.00,VWS V14.01,2013-02-18 09:20:00,
2013-02-18 04:25:00,27.3,13.3,24.44,ESE,106,4.0,8.0,55,0.00,,SKC,0.00,VWS V14.01,2013-02-18 09:25:00,
2013-02-18 04:30:00,27.4,13.4,24.46,South,169,4.0,6.0,55,0.00,,SKC,0.00,VWS V14.01,2013-02-18 09:30:00,
2013-02-18 04:35:00,27.5,13.5,24.46,South,169,3.0,13.0,55,0.00,,SKC,0.00,VWS V14.01,2013-02-18 09:35:00,
2013-02-18 04:39:00,27.6,13.6,24.46,SSW,209,10.0,10.0,55,0.00,,SKC,0.00,VWS V14.01,2013-02-18 09:39:00,
2013-02-18 04:44:00,27.7,13.6,24.32,SSE,165,6.0,12.0,55,0.00,,SKC,0.00,VWS V14.01,2013-02-18 09:44:00,
2013-02-18 04:49:00,27.8,13.8,24.29,SSE,163,3.0,7.0,55,0.00,,SKC,0.00,VWS V14.01,2013-02-18 09:49:00,
2013-02-18 04:54:00,27.9,13.8,24.29,South,187,4.0,7.0,55,0.00,,SKC,0.00,VWS V14.01,2013-02-18 09:54:00,
2013-02-18 04:59:00,28.0,13.9,24.31,SSW,209,8.0,14.0,55,0.00,,SKC,0.00,VWS V14.01,2013-02-18 09:59:00,
2013-02-18 05:04:00,28.0,13.9,24.31,SSE,161,4.0,14.0,55,0.00,,SKC,0.00,VWS V14.01,2013-02-18 10:04:00,
2013-02-18 05:09:00,27.9,14.2,24.44,SE,140,3.0,12.0,56,0.00,,SKC,0.00,VWS V14.01,2013-02-18 10:09:00,
2013-02-18 05:14:00,27.9,14.2,24.44,South,171,7.0,9.0,56,0.00,,SKC,0.00,VWS V14.01,2013-02-18 10:14:00,
2013-02-18 05:19:00,28.0,14.3,24.33,South,180,5.0,14.0,56,0.00,,SKC,0.00,VWS V14.01,2013-02-18 10:19:00,
2013-02-18 05:24:00,28.2,14.5,24.41,SSE,154,5.0,13.0,56,0.00,,SKC,0.00,VWS V14.01,2013-02-18 10:24:00,
2013-02-18 05:29:00,28.3,14.6,24.41,South,172,1.0,12.0,56,0.00,,SKC,0.00,VWS V14.01,2013-02-18 10:29:00,
2013-02-18 05:34:00,28.4,14.7,24.41,SSW,213,10.0,14.0,56,0.00,,SKC,0.00,VWS V14.01,2013-02-18 10:34:00,
2013-02-18 05:39:00,28.6,14.9,24.41,SSE,159,5.0,11.0,56,0.00,,SKC,0.00,VWS V14.01,2013-02-18 10:39:00,
2013-02-18 05:44:00,28.6,14.9,24.41,South,182,2.0,11.0,56,0.00,,SKC,0.00,VWS V14.01,2013-02-18 10:44:00,
2013-02-18 05:49:00,28.8,14.7,24.39,South,183,13.0,19.0,55,0.00,,SKC,0.00,VWS V14.01,2013-02-18 10:49:00,
2013-02-18 05:55:00,29.0,14.9,24.39,South,176,6.0,18.0,55,0.00,,SKC,0.00,VWS V14.01,2013-02-18 10:55:00,
2013-02-18 06:00:00,29.0,14.9,24.47,South,170,4.0,12.0,55,0.00,,SKC,0.00,VWS V14.01,2013-02-18 11:00:00,
2013-02-18 06:05:00,29.2,15.1,24.51,SE,145,7.0,14.0,55,0.00,,SKC,0.00,VWS V14.01,2013-02-18 11:05:00,
2013-02-18 06:10:00,29.3,15.1,24.54,SSE,165,12.0,14.0,55,0.00,,SKC,0.00,VWS V14.01,2013-02-18 11:10:00,
2013-02-18 06:15:00,29.4,15.2,24.57,SSW,196,4.0,15.0,55,0.00,,SKC,0.00,VWS V14.01,2013-02-18 11:15:00,
2013-02-18 06:20:00,29.4,15.2,24.56,South,177,10.0,13.0,55,0.00,,SKC,0.00,VWS V14.01,2013-02-18 11:20:00,
2013-02-18 06:25:00,29.4,15.2,24.52,South,189,10.0,12.0,55,0.00,,SKC,0.00,VWS V14.01,2013-02-18 11:25:00,
2013-02-18 06:30:00,29.2,15.1,24.52,South,188,7.0,16.0,55,0.00,,SKC,0.00,VWS V14.01,2013-02-18 11:30:00,
2013-02-18 06:35:00,29.1,15.4,24.52,SSE,153,14.0,14.0,56,0.00,,SKC,0.00,VWS V14.01,2013-02-18 11:35:00,
2013-02-18 06:40:00,29.0,15.3,24.57,South,187,11.0,15.0,56,0.00,,SKC,0.00,VWS V14.01,2013-02-18 11:40:00,
2013-02-18 06:45:00,28.9,15.2,24.51,SSW,210,6.0,18.0,56,0.00,,SKC,0.00,VWS V14.01,2013-02-18 11:45:00,
2013-02-18 06:50:00,28.9,15.6,24.54,SW,226,7.0,10.0,57,0.00,,SKC,0.00,VWS V14.01,2013-02-18 11:50:00,
2013-02-18 06:55:00,28.8,15.5,24.62,South,172,6.0,19.0,57,0.00,,SKC,0.00,VWS V14.01,2013-02-18 11:55:00,
2013-02-18 07:00:00,28.7,15.4,24.59,South,171,2.0,16.0,57,0.00,,SKC,0.00,VWS V14.01,2013-02-18 12:00:00,
2013-02-18 07:05:00,28.7,15.4,24.59,SE,144,6.0,14.0,57,0.00,,SKC,0.00,VWS V14.01,2013-02-18 12:05:00,
2013-02-18 07:10:00,28.7,15.8,24.58,South,191,10.0,11.0,58,0.00,,SKC,0.00,VWS V14.01,2013-02-18 12:10:00,
2013-02-18 07:15:00,28.7,15.8,24.57,South,190,5.0,17.0,58,0.00,,SKC,0.00,VWS V14.01,2013-02-18 12:15:00,
2013-02-18 07:20:00,28.7,15.8,24.55,SSW,202,7.0,11.0,58,0.00,,SKC,0.00,VWS V14.01,2013-02-18 12:20:00,
2013-02-18 07:25:00,29.0,16.1,24.58,South,169,6.0,16.0,58,0.00,,SKC,0.00,VWS V14.01,2013-02-18 12:25:00,
2013-02-18 07:30:00,29.1,16.2,24.58,SSW,202,15.0,18.0,58,0.00,,SKC,0.00,VWS V14.01,2013-02-18 12:30:00,
2013-02-18 07:35:00,29.1,16.2,24.53,South,174,6.0,18.0,58,0.00,,SKC,0.00,VWS V14.01,2013-02-18 12:35:00,
2013-02-18 07:40:00,29.2,16.3,24.53,South,191,9.0,16.0,58,0.00,,SKC,0.00,VWS V14.01,2013-02-18 12:40:00,
2013-02-18 07:45:00,29.3,16.8,24.49,SSE,165,13.0,15.0,59,0.00,,SKC,0.00,VWS V14.01,2013-02-18 12:45:00,
2013-02-18 07:50:00,29.4,16.9,24.48,SSE,149,10.0,18.0,59,0.00,,SKC,0.00,VWS V14.01,2013-02-18 12:50:00,
2013-02-18 07:55:00,29.4,16.9,24.52,SSW,194,7.0,15.0,59,0.00,,SKC,0.00,VWS V14.01,2013-02-18 12:55:00,
2013-02-18 08:00:00,29.6,17.0,24.51,SSW,198,10.0,16.0,59,0.00,,SKC,0.00,VWS V14.01,2013-02-18 13:00:00,
2013-02-18 08:05:00,29.8,17.2,24.61,South,187,10.0,22.0,59,0.00,,SKC,0.00,VWS V14.01,2013-02-18 13:05:00,
2013-02-18 08:10:00,30.3,17.7,24.41,South,190,3.0,20.0,59,0.00,,SKC,0.00,VWS V14.01,2013-02-18 13:10:00,
2013-02-18 08:15:00,30.5,17.9,24.55,South,188,15.0,15.0,59,0.00,,SKC,0.00,VWS V14.01,2013-02-18 13:15:00,
2013-02-18 08:20:00,30.6,18.0,24.55,SW,215,9.0,15.0,59,0.00,,SKC,0.00,VWS V14.01,2013-02-18 13:20:00,
2013-02-18 08:25:00,30.8,18.2,24.55,SSW,195,10.0,17.0,59,0.00,,SKC,0.00,VWS V14.01,2013-02-18 13:25:00,
2013-02-18 08:30:00,31.1,18.5,24.32,SSW,196,7.0,15.0,59,0.00,,SKC,0.00,VWS V14.01,2013-02-18 13:30:00,
2013-02-18 08:35:00,31.5,18.8,24.23,South,172,4.0,13.0,59,0.00,,SKC,0.00,VWS V14.01,2013-02-18 13:35:00,
2013-02-18 08:40:00,32.1,19.4,24.14,SSE,151,12.0,17.0,59,0.00,,SKC,0.00,VWS V14.01,2013-02-18 13:40:00,
2013-02-18 08:45:00,32.7,19.6,23.91,SSE,147,10.0,15.0,58,0.00,,SKC,0.00,VWS V14.01,2013-02-18 13:45:00,
2013-02-18 08:50:00,33.3,19.7,24.07,South,172,11.0,19.0,57,0.00,,SKC,0.00,VWS V14.01,2013-02-18 13:50:00,
2013-02-18 08:55:00,33.5,19.9,24.22,South,188,7.0,22.0,57,0.00,,SKC,0.00,VWS V14.01,2013-02-18 13:55:00,
2013-02-18 09:00:00,33.7,20.1,24.22,South,188,14.0,18.0,57,0.00,,SKC,0.00,VWS V14.01,2013-02-18 14:00:00,
2013-02-18 09:05:00,33.9,20.3,24.22,SSW,200,17.0,21.0,57,0.00,,SKC,0.00,VWS V14.01,2013-02-18 14:05:00,
2013-02-18 09:10:00,33.9,20.3,24.48,SW,222,15.0,15.0,57,0.00,,SKC,0.00,VWS V14.01,2013-02-18 14:10:00,
2013-02-18 09:15:00,34.0,20.4,24.48,SSE,168,5.0,15.0,57,0.00,,SKC,0.00,VWS V14.01,2013-02-18 14:15:00,
2013-02-18 09:20:00,34.2,20.6,24.48,South,173,6.0,17.0,57,0.00,,SKC,0.00,VWS V14.01,2013-02-18 14:20:00,
2013-02-18 09:25:00,34.5,20.9,24.48,SSW,198,10.0,18.0,57,0.00,,SKC,0.00,VWS V14.01,2013-02-18 14:25:00,
2013-02-18 09:30:00,35.0,21.3,24.48,SSW,196,6.0,17.0,57,0.00,,SKC,0.00,VWS V14.01,2013-02-18 14:30:00,
2013-02-18 09:35:00,35.3,21.6,24.48,SSW,194,10.0,21.0,57,0.00,,SKC,0.00,VWS V14.01,2013-02-18 14:35:00,
2013-02-18 09:40:00,35.9,22.2,24.27,SSW,192,10.0,21.0,57,0.00,,SKC,0.00,VWS V14.01,2013-02-18 14:40:00,
2013-02-18 09:45:00,36.3,22.5,24.28,SSE,168,20.0,26.0,57,0.00,,SKC,0.00,VWS V14.01,2013-02-18 14:45:00,
2013-02-18 09:50:00,36.8,23.0,24.30,South,172,13.0,20.0,57,0.00,,SKC,0.00,VWS V14.01,2013-02-18 14:50:00,
2013-02-18 09:55:00,37.2,23.4,24.27,South,169,7.0,21.0,57,0.00,,SKC,0.00,VWS V14.01,2013-02-18 14:55:00,
2013-02-18 10:00:00,37.7,23.9,24.25,SSW,213,7.0,13.0,57,0.00,,SKC,0.00,VWS V14.01,2013-02-18 15:00:00,
2013-02-18 10:05:00,38.3,24.4,24.25,SSW,209,4.0,22.0,57,0.00,,SKC,0.00,VWS V14.01,2013-02-18 15:05:00,
2013-02-18 10:10:00,38.8,24.9,24.26,SSW,205,7.0,20.0,57,0.00,,SKC,0.00,VWS V14.01,2013-02-18 15:10:00,
2013-02-18 10:15:00,39.2,25.3,24.26,SSW,201,6.0,17.0,57,0.00,,SKC,0.00,VWS V14.01,2013-02-18 15:15:00,
2013-02-18 10:20:00,39.5,25.5,24.26,South,188,9.0,17.0,57,0.00,,SKC,0.00,VWS V14.01,2013-02-18 15:20:00,
2013-02-18 10:25:00,40.0,26.4,24.26,SSE,167,19.0,19.0,58,0.00,,SKC,0.00,VWS V14.01,2013-02-18 15:25:00,
2013-02-18 10:30:00,40.5,26.9,24.27,SW,221,6.0,25.0,58,0.00,,SKC,0.00,VWS V14.01,2013-02-18 15:30:00,
2013-02-18 10:35:00,41.1,27.5,24.28,South,176,11.0,22.0,58,0.00,,SKC,0.00,VWS V14.01,2013-02-18 15:35:00,
2013-02-18 10:40:00,41.4,27.3,24.27,SSW,199,12.0,22.0,57,0.00,,SKC,0.00,VWS V14.01,2013-02-18 15:40:00,
2013-02-18 10:45:00,41.8,28.1,24.26,SSW,207,5.0,17.0,58,0.00,,SKC,0.00,VWS V14.01,2013-02-18 15:45:00,
2013-02-18 10:50:00,42.3,28.6,24.27,WSW,239,10.0,21.0,58,0.00,,SKC,0.00,VWS V14.01,2013-02-18 15:50:00,
2013-02-18 10:55:00,42.7,29.0,24.27,SW,229,11.0,28.0,58,0.00,,SKC,0.00,VWS V14.01,2013-02-18 15:55:00,
2013-02-18 11:00:00,42.9,29.2,24.27,SSW,210,7.0,17.0,58,0.00,,SKC,0.00,VWS V14.01,2013-02-18 16:00:00,
2013-02-18 11:05:00,43.1,29.8,24.27,SW,219,17.0,17.0,59,0.00,,SKC,0.00,VWS V14.01,2013-02-18 16:05:00,
2013-02-18 11:10:00,43.1,29.8,24.24,WSW,244,5.0,19.0,59,0.00,,SKC,0.00,VWS V14.01,2013-02-18 16:10:00,
2013-02-18 11:15:00,43.7,30.3,24.28,SSW,211,7.0,16.0,59,0.00,,SKC,0.00,VWS V14.01,2013-02-18 16:15:00,
2013-02-18 11:20:00,44.2,30.8,24.24,SSE,156,4.0,21.0,59,0.00,,SKC,0.00,VWS V14.01,2013-02-18 16:20:00,
2013-02-18 11:25:00,44.7,30.9,24.25,South,182,3.0,14.0,58,0.00,,SKC,0.00,VWS V14.01,2013-02-18 16:25:00,
2013-02-18 11:30:00,44.8,30.9,24.27,SW,219,13.0,19.0,58,0.00,,SKC,0.00,VWS V14.01,2013-02-18 16:30:00,
2013-02-18 11:35:00,45.0,31.1,24.26,SW,232,13.0,22.0,58,0.00,,SKC,0.00,VWS V14.01,2013-02-18 16:35:00,
2013-02-18 11:40:00,45.0,31.5,24.24,SSW,194,21.0,21.0,59,0.00,,SKC,0.00,VWS V14.01,2013-02-18 16:40:00,
2013-02-18 11:45:00,45.4,31.9,24.23,SSW,212,10.0,15.0,59,0.00,,SKC,0.00,VWS V14.01,2013-02-18 16:45:00,
2013-02-18 11:50:00,45.7,32.2,24.23,South,180,5.0,17.0,59,0.00,,SKC,0.00,VWS V14.01,2013-02-18 16:50:00,
2013-02-18 11:55:00,45.8,32.3,24.23,WSW,245,6.0,16.0,59,0.00,,SKC,0.00,VWS V14.01,2013-02-18 16:55:00,
2013-02-18 12:00:00,46.2,32.7,24.25,SW,222,10.0,15.0,59,0.00,,SKC,0.00,VWS V14.01,2013-02-18 17:00:00,
2013-02-18 12:05:00,46.5,33.0,24.24,SSE,150,15.0,19.0,59,0.00,,SKC,0.00,VWS V14.01,2013-02-18 17:05:00,
2013-02-18 12:10:00,46.5,33.0,24.23,SW,219,13.0,21.0,59,0.00,,SKC,0.00,VWS V14.01,2013-02-18 17:10:00,
2013-02-18 12:15:00,46.7,33.6,24.24,SW,214,6.0,16.0,60,0.00,,SKC,0.00,VWS V14.01,2013-02-18 17:15:00,
2013-02-18 12:20:00,47.2,34.0,24.23,SSW,213,6.0,19.0,60,0.00,,SKC,0.00,VWS V14.01,2013-02-18 17:20:00,
2013-02-18 12:25:00,47.6,34.0,24.24,South,186,13.0,18.0,59,0.00,,SKC,0.00,VWS V14.01,2013-02-18 17:25:00,
2013-02-18 12:30:00,47.4,33.8,24.24,SE,142,16.0,21.0,59,0.00,,SKC,0.00,VWS V14.01,2013-02-18 17:30:00,
2013-02-18 12:35:00,47.6,34.4,24.24,South,190,4.0,23.0,60,0.00,,SKC,0.00,VWS V14.01,2013-02-18 17:35:00,
2013-02-18 12:40:00,48.0,34.8,24.24,South,172,17.0,22.0,60,0.00,,SKC,0.00,VWS V14.01,2013-02-18 17:40:00,
2013-02-18 12:45:00,48.3,34.7,24.24,South,188,4.0,21.0,59,0.00,,SKC,0.00,VWS V14.01,2013-02-18 17:45:00,
2013-02-18 12:50:00,48.9,35.2,24.24,SW,220,3.0,18.0,59,0.00,,SKC,0.00,VWS V14.01,2013-02-18 17:50:00,
2013-02-18 12:55:00,49.2,35.5,24.24,SSW,210,10.0,18.0,59,0.00,,SKC,0.00,VWS V14.01,2013-02-18 17:55:00,
2013-02-18 13:00:00,49.2,35.5,24.24,SSE,168,5.0,19.0,59,0.00,,SKC,0.00,VWS V14.01,2013-02-18 18:00:00,
2013-02-18 13:05:00,49.6,35.9,24.24,SSW,203,10.0,25.0,59,0.00,,SKC,0.00,VWS V14.01,2013-02-18 18:05:00,
2013-02-18 13:10:00,49.7,36.0,24.24,SSE,164,5.0,20.0,59,0.00,,SKC,0.00,VWS V14.01,2013-02-18 18:10:00,
2013-02-18 13:15:00,50.0,36.2,24.24,North,360,10.0,16.0,59,0.00,,SKC,0.00,VWS V14.01,2013-02-18 18:15:00,
2013-02-18 13:20:00,49.9,36.2,24.24,SSW,199,4.0,26.0,59,0.00,,SKC,0.00,VWS V14.01,2013-02-18 18:20:00,
2013-02-18 13:26:00,49.9,36.6,24.24,SSW,209,6.0,12.0,60,0.00,,SKC,0.00,VWS V14.01,2013-02-18 18:26:00,
2013-02-18 13:31:00,50.5,36.3,24.24,SSW,198,20.0,21.0,58,0.00,,SKC,0.00,VWS V14.01,2013-02-18 18:31:00,
2013-02-18 13:36:00,50.2,36.4,24.24,SW,222,5.0,19.0,59,0.00,,SKC,0.00,VWS V14.01,2013-02-18 18:36:00,
2013-02-18 13:41:00,49.8,36.1,24.24,SSW,202,14.0,28.0,59,0.00,,SKC,0.00,VWS V14.01,2013-02-18 18:41:00,
2013-02-18 13:46:00,49.7,36.4,24.24,SW,225,5.0,21.0,60,0.00,,SKC,0.00,VWS V14.01,2013-02-18 18:46:00,
2013-02-18 13:51:00,50.0,36.7,24.24,SW,223,10.0,13.0,60,0.00,,SKC,0.00,VWS V14.01,2013-02-18 18:51:00,
2013-02-18 13:56:00,50.5,36.7,24.24,South,186,7.0,20.0,59,0.00,,SKC,0.00,VWS V14.01,2013-02-18 18:56:00,
2013-02-18 14:01:00,50.6,36.8,24.24,SSW,200,13.0,19.0,59,0.00,,SKC,0.00,VWS V14.01,2013-02-18 19:01:00,
2013-02-18 14:06:00,50.4,37.0,24.24,SW,214,6.0,20.0,60,0.00,,SKC,0.00,VWS V14.01,2013-02-18 19:06:00,
2013-02-18 14:11:00,50.8,37.4,24.24,SSW,196,5.0,15.0,60,0.00,,SKC,0.00,VWS V14.01,2013-02-18 19:11:00,
2013-02-18 14:16:00,50.8,37.4,24.24,WSW,254,11.0,19.0,60,0.00,,SKC,0.00,VWS V14.01,2013-02-18 19:16:00,
2013-02-18 14:21:00,50.8,37.4,24.24,SSW,192,9.0,18.0,60,0.00,,SKC,0.00,VWS V14.01,2013-02-18 19:21:00,
2013-02-18 14:26:00,51.0,37.6,24.24,South,183,9.0,24.0,60,0.00,,SKC,0.00,VWS V14.01,2013-02-18 19:26:00,
2013-02-18 14:31:00,51.0,38.0,24.24,SSW,202,7.0,21.0,61,0.00,,SKC,0.00,VWS V14.01,2013-02-18 19:31:00,
2013-02-18 14:35:00,51.1,38.1,24.24,SSW,207,12.0,23.0,61,0.00,,SKC,0.00,VWS V14.01,2013-02-18 19:35:00,
2013-02-18 14:41:00,51.5,38.5,24.24,SSW,198,3.0,14.0,61,0.00,,SKC,0.00,VWS V14.01,2013-02-18 19:41:00,
2013-02-18 14:45:00,51.8,38.8,24.24,South,190,16.0,20.0,61,0.00,,SKC,0.00,VWS V14.01,2013-02-18 19:45:00,
2013-02-18 14:50:00,52.4,38.9,24.24,South,190,9.0,19.0,60,0.00,,SKC,0.00,VWS V14.01,2013-02-18 19:50:00,
2013-02-18 14:56:00,52.7,39.2,24.24,SSW,205,19.0,22.0,60,0.00,,SKC,0.00,VWS V14.01,2013-02-18 19:56:00,
2013-02-18 15:01:00,52.4,39.4,24.24,SSW,200,11.0,20.0,61,0.00,,SKC,0.00,VWS V14.01,2013-02-18 20:01:00,
2013-02-18 15:06:00,52.6,39.5,24.24,SSW,194,12.0,23.0,61,0.00,,SKC,0.00,VWS V14.01,2013-02-18 20:06:00,
2013-02-18 15:11:00,53.0,39.9,24.24,SSW,206,16.0,22.0,61,0.00,,SKC,0.00,VWS V14.01,2013-02-18 20:11:00,
2013-02-18 15:16:00,53.1,40.0,24.24,SSW,213,6.0,24.0,61,0.00,,SKC,0.00,VWS V14.01,2013-02-18 20:16:00,
2013-02-18 15:21:00,53.2,40.1,24.23,South,182,12.0,30.0,61,0.00,,SKC,0.00,VWS V14.01,2013-02-18 20:21:00,
2013-02-18 15:26:00,53.7,40.2,24.24,SSW,213,12.0,24.0,60,0.00,,SKC,0.00,VWS V14.01,2013-02-18 20:26:00,
2013-02-18 15:31:00,54.2,40.2,24.24,SSW,200,15.0,25.0,59,0.00,,SKC,0.00,VWS V14.01,2013-02-18 20:31:00,
2013-02-18 15:36:00,54.5,40.9,24.24,SW,222,11.0,19.0,60,0.00,,SKC,0.00,VWS V14.01,2013-02-18 20:36:00,
2013-02-18 15:41:00,54.8,40.8,24.24,SSE,161,16.0,30.0,59,0.00,,SKC,0.00,VWS V14.01,2013-02-18 20:41:00,
2013-02-18 15:46:00,54.8,40.8,24.24,SSW,199,7.0,29.0,59,0.00,,SKC,0.00,VWS V14.01,2013-02-18 20:46:00,
2013-02-18 15:51:00,54.9,40.9,24.24,SSW,199,13.0,23.0,59,0.00,,SKC,0.00,VWS V14.01,2013-02-18 20:51:00,
2013-02-18 15:56:00,55.0,41.0,24.24,North,360,16.0,20.0,59,0.00,,SKC,0.00,VWS V14.01,2013-02-18 20:56:00,
2013-02-18 16:01:00,55.1,40.6,24.24,South,179,8.0,18.0,58,0.00,,SKC,0.00,VWS V14.01,2013-02-18 21:01:00,
2013-02-18 16:06:00,55.3,40.3,24.24,South,170,5.0,12.0,57,0.00,,SKC,0.00,VWS V14.01,2013-02-18 21:06:00,
2013-02-18 16:11:00,55.1,40.2,24.24,SW,223,18.0,23.0,57,0.00,,SKC,0.00,VWS V14.01,2013-02-18 21:11:00,
2013-02-18 16:16:00,55.2,39.8,24.23,SSW,206,11.0,23.0,56,0.00,,SKC,0.00,VWS V14.01,2013-02-18 21:16:00,
2013-02-18 16:21:00,55.1,39.7,24.24,WSW,242,7.0,24.0,56,0.00,,SKC,0.00,VWS V14.01,2013-02-18 21:21:00,
2013-02-18 16:26:00,54.9,39.0,24.23,SSW,211,3.0,25.0,55,0.00,,SKC,0.00,VWS V14.01,2013-02-18 21:26:00,
2013-02-18 16:31:00,54.9,39.0,24.23,South,183,15.0,24.0,55,0.00,,SKC,0.00,VWS V14.01,2013-02-18 21:31:00,
2013-02-18 16:36:00,54.7,38.9,24.23,South,173,6.0,17.0,55,0.00,,SKC,0.00,VWS V14.01,2013-02-18 21:36:00,
2013-02-18 16:41:00,54.8,38.0,24.23,South,182,5.0,26.0,53,0.00,,SKC,0.00,VWS V14.01,2013-02-18 21:41:00,
2013-02-18 16:46:00,54.8,37.5,24.23,SSW,212,16.0,20.0,52,0.00,,SKC,0.00,VWS V14.01,2013-02-18 21:46:00,
2013-02-18 16:51:00,54.8,37.5,24.24,SW,217,5.0,21.0,52,0.00,,SKC,0.00,VWS V14.01,2013-02-18 21:51:00,
2013-02-18 16:56:00,54.8,37.5,24.24,South,191,11.0,24.0,52,0.00,,SKC,0.00,VWS V14.01,2013-02-18 21:56:00,
2013-02-18 17:01:00,54.8,37.0,24.23,SSW,211,11.0,21.0,51,0.00,,SKC,0.00,VWS V14.01,2013-02-18 22:01:00,
2013-02-18 17:06:00,54.8,37.0,24.24,SSW,205,8.0,19.0,51,0.00,,SKC,0.00,VWS V14.01,2013-02-18 22:06:00,
2013-02-18 17:11:00,54.9,37.1,24.24,SW,215,11.0,24.0,51,0.00,,SKC,0.00,VWS V14.01,2013-02-18 22:11:00,
2013-02-18 17:16:00,54.9,36.6,24.27,South,184,12.0,23.0,50,0.00,,SKC,0.00,VWS V14.01,2013-02-18 22:16:00,
2013-02-18 17:21:00,54.9,36.6,24.25,SSW,200,15.0,26.0,50,0.00,,SKC,0.00,VWS V14.01,2013-02-18 22:21:00,
2013-02-18 17:26:00,55.0,36.7,24.23,SSW,195,14.0,22.0,50,0.00,,SKC,0.00,VWS V14.01,2013-02-18 22:26:00,
2013-02-18 17:31:00,54.9,36.6,24.24,South,184,18.0,29.0,50,0.00,,SKC,0.00,VWS V14.01,2013-02-18 22:31:00,
2013-02-18 17:36:00,54.8,36.5,24.24,South,175,12.0,15.0,50,0.00,,SKC,0.00,VWS V14.01,2013-02-18 22:36:00,
2013-02-18 17:41:00,54.7,36.4,24.23,SSE,155,8.0,20.0,50,0.00,,SKC,0.00,VWS V14.01,2013-02-18 22:41:00,
2013-02-18 17:46:00,54.5,36.3,24.25,South,180,5.0,21.0,50,0.00,,SKC,0.00,VWS V14.01,2013-02-18 22:46:00,
2013-02-18 17:51:00,54.4,36.7,24.24,South,180,6.0,13.0,51,0.00,,SKC,0.00,VWS V14.01,2013-02-18 22:51:00,
2013-02-18 17:56:00,54.2,36.5,24.22,SSW,207,6.0,20.0,51,0.00,,SKC,0.00,VWS V14.01,2013-02-18 22:56:00,
2013-02-18 18:01:00,54.0,36.3,24.23,SSW,211,10.0,19.0,51,0.00,,SKC,0.00,VWS V14.01,2013-02-18 23:01:00,
2013-02-18 18:06:00,54.0,36.3,24.22,SSW,208,15.0,16.0,51,0.00,,SKC,0.00,VWS V14.01,2013-02-18 23:06:00,
2013-02-18 18:11:00,53.9,36.2,24.23,SSW,195,1.0,15.0,51,0.00,,SKC,0.00,VWS V14.01,2013-02-18 23:11:00,
2013-02-18 18:16:00,53.8,36.1,24.23,SSW,213,11.0,20.0,51,0.00,,SKC,0.00,VWS V14.01,2013-02-18 23:16:00,
2013-02-18 18:21:00,53.7,36.0,24.27,South,172,17.0,17.0,51,0.00,,SKC,0.00,VWS V14.01,2013-02-18 23:21:00,
2013-02-18 18:26:00,53.5,35.8,24.26,SW,233,7.0,12.0,51,0.00,,SKC,0.00,VWS V14.01,2013-02-18 23:26:00,
2013-02-18 18:31:00,53.4,35.7,24.22,South,187,10.0,20.0,51,0.00,,SKC,0.00,VWS V14.01,2013-02-18 23:31:00,
2013-02-18 18:36:00,53.2,36.0,24.24,SSW,205,9.0,14.0,52,0.00,,SKC,0.00,VWS V14.01,2013-02-18 23:36:00,
2013-02-18 18:41:00,53.1,36.0,24.26,South,188,5.0,14.0,52,0.00,,SKC,0.00,VWS V14.01,2013-02-18 23:41:00,
2013-02-18 18:46:00,52.9,35.8,24.26,South,176,3.0,15.0,52,0.00,,SKC,0.00,VWS V14.01,2013-02-18 23:46:00,
2013-02-18 18:51:00,53.1,36.0,24.25,SSW,206,5.0,18.0,52,0.00,,SKC,0.00,VWS V14.01,2013-02-18 23:51:00,
2013-02-18 18:56:00,52.9,36.2,24.24,SSW,211,11.0,17.0,53,0.00,,SKC,0.00,VWS V14.01,2013-02-18 23:56:00,
2013-02-18 19:01:00,52.6,36.5,24.23,SSW,208,3.0,23.0,54,0.00,,SKC,0.00,VWS V14.01,2013-02-19 00:01:00,
2013-02-18 19:07:00,52.4,36.7,24.25,SW,221,5.0,15.0,55,0.00,,SKC,0.00,VWS V14.01,2013-02-19 00:07:00,
2013-02-18 19:12:00,52.3,37.1,24.26,SSW,194,8.0,41.0,56,0.00,,SKC,0.00,VWS V14.01,2013-02-19 00:12:00,
2013-02-18 19:17:00,51.7,38.3,24.29,South,171,23.0,23.0,60,0.00,,SKC,0.00,VWS V14.01,2013-02-19 00:17:00,
2013-02-18 19:22:00,50.8,39.5,24.31,SSW,195,11.0,24.0,65,0.00,,SKC,0.00,VWS V14.01,2013-02-19 00:22:00,
2013-02-18 19:27:00,49.7,39.6,24.28,South,172,11.0,17.0,68,0.01,,SKC,0.01,VWS V14.01,2013-02-19 00:27:00,
2013-02-18 19:32:00,49.1,39.4,24.24,SSW,203,22.0,22.0,69,0.01,,SKC,0.01,VWS V14.01,2013-02-19 00:32:00,
2013-02-18 19:37:00,49.1,39.0,24.29,South,186,4.0,19.0,68,0.01,,SKC,0.01,VWS V14.01,2013-02-19 00:37:00,
2013-02-18 19:42:00,49.0,38.9,24.24,SSW,210,2.0,10.0,68,0.01,,SKC,0.01,VWS V14.01,2013-02-19 00:42:00,
2013-02-18 19:47:00,49.2,38.7,24.24,SW,215,11.0,17.0,67,0.01,,SKC,0.01,VWS V14.01,2013-02-19 00:47:00,
2013-02-18 19:52:00,49.5,38.6,24.25,SSW,208,22.0,22.0,66,0.01,,SKC,0.01,VWS V14.01,2013-02-19 00:52:00,
2013-02-18 19:57:00,50.5,38.0,24.23,South,174,14.0,24.0,62,0.01,,SKC,0.01,VWS V14.01,2013-02-19 00:57:00,
2013-02-18 20:02:00,50.7,38.2,24.23,SW,215,14.0,31.0,62,0.01,,SKC,0.01,VWS V14.01,2013-02-19 01:02:00,
2013-02-18 20:07:00,50.2,38.5,24.22,SW,235,7.0,21.0,64,0.01,,SKC,0.01,VWS V14.01,2013-02-19 01:07:00,
2013-02-18 20:12:00,49.8,38.5,24.24,South,173,3.0,21.0,65,0.01,,SKC,0.01,VWS V14.01,2013-02-19 01:12:00,
2013-02-18 20:17:00,49.5,38.6,24.22,SW,223,12.0,22.0,66,0.01,,SKC,0.01,VWS V14.01,2013-02-19 01:17:00,
2013-02-18 20:22:00,49.3,38.8,24.25,SSW,192,4.0,12.0,67,0.01,,SKC,0.01,VWS V14.01,2013-02-19 01:22:00,
2013-02-18 20:27:00,49.2,38.7,24.24,South,186,15.0,21.0,67,0.01,,SKC,0.01,VWS V14.01,2013-02-19 01:27:00,
2013-02-18 20:32:00,49.1,38.6,24.26,SSW,202,7.0,13.0,67,0.00,,SKC,0.01,VWS V14.01,2013-02-19 01:32:00,
2013-02-18 20:37:00,49.0,38.5,24.31,SSE,153,12.0,15.0,67,0.00,,SKC,0.01,VWS V14.01,2013-02-19 01:37:00,
2013-02-18 20:42:00,49.2,38.3,24.29,South,184,11.0,15.0,66,0.00,,SKC,0.01,VWS V14.01,2013-02-19 01:42:00,
2013-02-18 20:47:00,49.2,38.0,24.30,SSW,207,5.0,16.0,65,0.00,,SKC,0.01,VWS V14.01,2013-02-19 01:47:00,
2013-02-18 20:52:00,49.4,38.1,24.31,South,183,7.0,22.0,65,0.00,,SKC,0.01,VWS V14.01,2013-02-19 01:52:00,
2013-02-18 20:57:00,49.7,38.0,24.32,South,188,10.0,20.0,64,0.00,,SKC,0.01,VWS V14.01,2013-02-19 01:57:00,
2013-02-18 21:02:00,50.0,37.9,24.30,South,185,4.0,17.0,63,0.00,,SKC,0.01,VWS V14.01,2013-02-19 02:02:00,
2013-02-18 21:07:00,50.1,38.0,24.30,South,169,13.0,24.0,63,0.00,,SKC,0.01,VWS V14.01,2013-02-19 02:07:00,
2013-02-18 21:12:00,49.9,38.2,24.27,South,180,10.0,23.0,64,0.00,,SKC,0.01,VWS V14.01,2013-02-19 02:12:00,
2013-02-18 21:17:00,49.8,38.5,24.28,SW,218,10.0,31.0,65,0.00,,SKC,0.01,VWS V14.01,2013-02-19 02:17:00,
2013-02-18 21:22:00,49.7,38.8,24.27,SW,214,5.0,30.0,66,0.00,,SKC,0.01,VWS V14.01,2013-02-19 02:22:00,
2013-02-18 21:27:00,49.6,38.7,24.25,South,173,14.0,21.0,66,0.00,,SKC,0.01,VWS V14.01,2013-02-19 02:27:00,
2013-02-18 21:32:00,49.6,38.3,24.25,South,180,6.0,19.0,65,0.00,,SKC,0.01,VWS V14.01,2013-02-19 02:32:00,
2013-02-18 21:37:00,49.9,38.6,24.24,SSE,163,13.0,29.0,65,0.00,,SKC,0.01,VWS V14.01,2013-02-19 02:37:00,
2013-02-18 21:42:00,49.8,38.5,24.27,SW,216,12.0,20.0,65,0.00,,SKC,0.01,VWS V14.01,2013-02-19 02:42:00,
2013-02-18 21:47:00,49.5,39.0,24.25,SW,218,14.0,20.0,67,0.00,,SKC,0.01,VWS V14.01,2013-02-19 02:47:00,
2013-02-18 21:52:00,49.0,39.7,24.26,SW,217,6.0,29.0,70,0.00,,SKC,0.01,VWS V14.01,2013-02-19 02:52:00,
2013-02-18 21:57:00,48.1,40.2,24.26,SSW,209,3.0,22.0,74,0.01,,SKC,0.02,VWS V14.01,2013-02-19 02:57:00,
2013-02-18 22:02:00,47.2,40.7,24.24,South,186,8.0,28.0,78,0.02,,SKC,0.03,VWS V14.01,2013-02-19 03:02:00,
2013-02-18 22:07:00,46.7,40.9,24.26,SSW,194,8.0,22.0,80,0.03,,SKC,0.04,VWS V14.01,2013-02-19 03:07:00,
2013-02-18 22:12:00,46.2,41.0,24.24,SW,219,12.0,18.0,82,0.04,,SKC,0.05,VWS V14.01,2013-02-19 03:12:00,
2013-02-18 22:17:00,45.9,41.0,24.25,SSW,196,12.0,26.0,83,0.05,,SKC,0.06,VWS V14.01,2013-02-19 03:17:00,
2013-02-18 22:22:00,45.7,40.8,24.26,SSE,166,3.0,27.0,83,0.06,,SKC,0.07,VWS V14.01,2013-02-19 03:22:00,
2013-02-18 22:27:00,45.5,41.0,24.25,SSW,199,10.0,21.0,84,0.07,,SKC,0.08,VWS V14.01,2013-02-19 03:27:00,
2013-02-18 22:32:00,45.4,41.2,24.25,South,181,18.0,23.0,85,0.08,,SKC,0.09,VWS V14.01,2013-02-19 03:32:00,
2013-02-18 22:37:00,45.3,41.1,24.23,South,182,22.0,29.0,85,0.08,,SKC,0.09,VWS V14.01,2013-02-19 03:37:00,
2013-02-18 22:42:00,45.2,41.3,24.22,SW,224,22.0,23.0,86,0.09,,SKC,0.10,VWS V14.01,2013-02-19 03:42:00,
2013-02-18 22:47:00,45.2,41.3,24.25,SW,215,15.0,27.0,86,0.09,,SKC,0.10,VWS V14.01,2013-02-19 03:47:00,
2013-02-18 22:52:00,45.1,41.2,24.23,SSW,213,15.0,31.0,86,0.09,,SKC,0.10,VWS V14.01,2013-02-19 03:52:00,
2013-02-18 22:57:00,45.0,41.1,24.25,South,174,15.0,26.0,86,0.10,,SKC,0.11,VWS V14.01,2013-02-19 03:57:00,
2013-02-18 23:02:00,44.9,41.0,24.24,SSE,159,7.0,23.0,86,0.09,,SKC,0.11,VWS V14.01,2013-02-19 04:02:00,
2013-02-18 23:07:00,44.7,41.1,24.25,South,184,16.0,30.0,87,0.10,,SKC,0.13,VWS V14.01,2013-02-19 04:07:00,
2013-02-18 23:12:00,44.7,41.1,24.25,SSE,165,10.0,25.0,87,0.09,,SKC,0.13,VWS V14.01,2013-02-19 04:12:00,
2013-02-18 23:17:00,44.6,41.0,24.25,South,189,25.0,28.0,87,0.09,,SKC,0.14,VWS V14.01,2013-02-19 04:17:00,
2013-02-18 23:22:00,44.8,41.2,24.24,SSW,195,11.0,22.0,87,0.08,,SKC,0.14,VWS V14.01,2013-02-19 04:22:00,
2013-02-18 23:27:00,44.9,41.0,24.25,SSW,195,13.0,32.0,86,0.07,,SKC,0.15,VWS V14.01,2013-02-19 04:27:00,
2013-02-18 23:32:00,44.8,40.9,24.23,SSE,155,14.0,28.0,86,0.08,,SKC,0.16,VWS V14.01,2013-02-19 04:32:00,
2013-02-18 23:37:00,44.7,41.1,24.25,SW,218,15.0,22.0,87,0.07,,SKC,0.16,VWS V14.01,2013-02-19 04:37:00,
2013-02-18 23:42:00,44.6,40.7,24.24,South,183,14.0,24.0,86,0.08,,SKC,0.17,VWS V14.01,2013-02-19 04:42:00,
2013-02-18 23:47:00,44.5,40.6,24.24,SSW,199,11.0,27.0,86,0.08,,SKC,0.18,VWS V14.01,2013-02-19 04:47:00,
2013-02-18 23:52:00,44.6,40.7,24.24,SW,214,19.0,29.0,86,0.08,,SKC,0.18,VWS V14.01,2013-02-19 04:52:00,
2013-02-18 23:57:00,44.7,40.5,24.25,SSW,192,6.0,29.0,85,0.08,,SKC,0.18,VWS V14.01,2013-02-19 04:57:00,